Grafton, ND

1:50 AM CDT on March 29, 2017 (GMT -0500)
Grafton Municipal

Weather History for KGAF - February, 2014

Change the Weather History Date:

Friday, February 7, 2014

  Actual Average Record
Temperature  
Mean Temperature 0 °F -  
Max Temperature 6 °F 20 °F 55 °F (1991)
Min Temperature -9 °F 0 °F -26 °F (1962)
Degree Days  
Heating Degree Days 66    
Moisture  
Dew Point -7 °F    
Average Humidity 68    
Maximum Humidity 84    
Minimum Humidity 56    
Precipitation  
Precipitation 0.00 in - - ()
Sea Level Pressure  
Sea Level Pressure 29.98 in    
Wind  
Wind Speed 14 mph (West)    
Max Wind Speed 28 mph    
Max Gust Speed 32 mph    
Visibility 10 miles    
Events      
Averages and records for this station are not official NWS values.
T = Trace of Precipitation, MM = Missing Value Source: NWS Daily Summary

Daily Weather History Graph

Daily Weather History Graph

Search for Another Location

Airport or City:

Trip Planner

Search our weather history database for the weather conditions in past years. The results will help you decide how hot, cold, wet, or windy it might be!

Date:

Astronomy

Feb. 07, 2014 Rise Set
Actual Time 7:49 AM CST 5:38 PM CST
Civil Twilight 7:16 AM CST 6:11 PM CST
Nautical Twilight 6:39 AM CST 6:48 PM CST
Astronomical Twilight 6:03 AM CST 7:24 PM CST
Moon 11:45 AM CST (2/7) 2:10 AM CST (2/7)
Length of Visible Light 10h 54m
Length of Day
9h 48m
First Quarter, 59% of the Moon is Illuminated
Feb 7
First Quarter
Feb 14
Full
Feb 22
Last Quarter
Mar 1
New
Mar 8
First Quarter

Hourly Weather History & Observations

Time (CST) Temp. Windchill Dew Point Humidity Pressure Visibility Wind Dir Wind Speed Gust Speed Precip Events Conditions
12:15 AM 1.4 °F -20.5 °F -5.8 °F 72% 29.95 in 10.0 mi West 20.7 mph - N/A   Clear
12:35 AM 1.4 °F -19.4 °F -5.8 °F 72% 29.95 in 10.0 mi West 18.4 mph 24.2 mph N/A   Clear
12:55 AM 1.4 °F -17.6 °F -5.8 °F 72% 29.95 in 10.0 mi West 15.0 mph 19.6 mph N/A   Clear
1:15 AM 1.4 °F -17.6 °F -5.8 °F 72% 29.94 in 10.0 mi West 15.0 mph 19.6 mph N/A   Clear
1:35 AM 1.4 °F -20.5 °F -7.6 °F 66% 29.93 in 10.0 mi West 20.7 mph 26.5 mph N/A   Clear
1:55 AM 1.4 °F -19.4 °F -7.6 °F 66% 29.93 in 10.0 mi WSW 18.4 mph - N/A   Clear
2:15 AM 1.4 °F -19.9 °F -7.6 °F 66% 29.93 in 10.0 mi West 19.6 mph - N/A   Clear
2:35 AM 1.4 °F -21.4 °F -7.6 °F 66% 29.92 in 10.0 mi West 23.0 mph - N/A   Clear
2:55 AM 1.4 °F -21.4 °F -7.6 °F 66% 29.92 in 10.0 mi West 23.0 mph 28.8 mph N/A   Clear
3:15 AM -0.4 °F -23.3 °F -7.6 °F 72% 29.92 in 10.0 mi West 21.9 mph 25.3 mph N/A   Clear
3:35 AM 1.4 °F -21.4 °F -7.6 °F 66% 29.91 in 10.0 mi West 23.0 mph 29.9 mph N/A   Clear
3:55 AM -0.4 °F -24.7 °F -7.6 °F 72% 29.90 in 10.0 mi West 25.3 mph - N/A   Clear
4:15 AM 1.4 °F -23.2 °F -7.6 °F 66% 29.89 in 10.0 mi West 27.6 mph 32.2 mph N/A   Clear
4:35 AM 1.4 °F -23.2 °F -7.6 °F 66% 29.90 in 10.0 mi West 27.6 mph - N/A   Clear
4:55 AM 1.4 °F -21.4 °F -5.8 °F 72% 29.90 in 10.0 mi West 23.0 mph - N/A   Clear
5:15 AM 1.4 °F -21.0 °F -7.6 °F 66% 29.91 in 10.0 mi West 21.9 mph - N/A   Clear
5:35 AM 1.4 °F -20.5 °F -7.6 °F 66% 29.91 in 10.0 mi West 20.7 mph - N/A   Clear
5:55 AM -0.4 °F -20.5 °F -7.6 °F 72% 29.92 in 10.0 mi West 16.1 mph - N/A   Clear
6:15 AM -0.4 °F -21.7 °F -9.4 °F 66% 29.92 in 10.0 mi West 18.4 mph - N/A   Clear
6:35 AM -0.4 °F -22.3 °F -9.4 °F 66% 29.91 in 10.0 mi West 19.6 mph - N/A   Clear
6:55 AM -0.4 °F -23.8 °F -9.4 °F 66% 29.90 in 10.0 mi West 23.0 mph - N/A   Clear
7:15 AM -0.4 °F -21.7 °F -9.4 °F 66% 29.91 in 10.0 mi West 18.4 mph - N/A   Clear
7:35 AM -0.4 °F -19.9 °F -9.4 °F 66% 29.92 in 10.0 mi West 15.0 mph - N/A   Clear
7:55 AM -2.2 °F -16.8 °F -9.4 °F 71% 29.93 in 10.0 mi West 8.1 mph - N/A   Clear
8:15 AM -0.4 °F -17.6 °F -11.2 °F 60% 29.94 in 10.0 mi West 11.5 mph - N/A   Clear
8:35 AM -0.4 °F -16.7 °F -11.2 °F 60% 29.95 in 10.0 mi West 10.4 mph - N/A   Clear
8:55 AM -0.4 °F -18.4 °F -9.4 °F 66% 29.95 in 10.0 mi West 12.7 mph - N/A   Clear
9:15 AM -0.4 °F -19.9 °F -11.2 °F 60% 29.95 in 10.0 mi West 15.0 mph - N/A   Clear
9:35 AM -0.4 °F -19.9 °F -9.4 °F 66% 29.96 in 10.0 mi West 15.0 mph - N/A   Clear
9:55 AM -0.4 °F -20.5 °F -9.4 °F 66% 29.96 in 10.0 mi West 16.1 mph - N/A   Clear
10:15 AM 1.4 °F -16.1 °F -7.6 °F 66% 29.96 in 10.0 mi West 12.7 mph - N/A   Clear
10:35 AM 1.4 °F -16.9 °F -7.6 °F 66% 29.97 in 10.0 mi West 13.8 mph - N/A   Clear
10:55 AM 1.4 °F -17.6 °F -7.6 °F 66% 29.97 in 10.0 mi West 15.0 mph - N/A   Clear
11:15 AM 1.4 °F -15.3 °F -7.6 °F 66% 29.98 in 10.0 mi West 11.5 mph - N/A   Clear
11:35 AM 3.2 °F -15.3 °F -7.6 °F 61% 29.98 in 10.0 mi West 15.0 mph - N/A   Clear
11:55 AM 5.0 °F -10.8 °F -7.6 °F 56% 29.98 in 10.0 mi WNW 11.5 mph - N/A   Clear
12:15 PM 5.0 °F -10.8 °F -7.6 °F 56% 29.98 in 10.0 mi WNW 11.5 mph - N/A   Clear
12:35 PM 5.0 °F -11.6 °F -5.8 °F 61% 29.98 in 10.0 mi NW 12.7 mph - N/A   Clear
12:55 PM 5.0 °F -8.1 °F -5.8 °F 61% 29.99 in 10.0 mi NW 8.1 mph - N/A   Clear
1:15 PM 6.8 °F -6.9 °F -4.0 °F 61% 29.99 in 10.0 mi WNW 9.2 mph - N/A   Clear
1:35 PM 6.8 °F -4.8 °F -4.0 °F 61% 29.99 in 10.0 mi NW 6.9 mph - N/A   Clear
1:55 PM 6.8 °F -3.5 °F -4.0 °F 61% 29.99 in 10.0 mi NW 5.8 mph - N/A   Clear
2:15 PM 6.8 °F -3.5 °F -4.0 °F 61% 29.98 in 10.0 mi WNW 5.8 mph - N/A   Clear
2:35 PM 6.8 °F -2.0 °F -4.0 °F 61% 29.99 in 10.0 mi NW 4.6 mph - N/A   Clear
2:55 PM 6.8 °F -2.0 °F -4.0 °F 61% 29.99 in 10.0 mi NNW 4.6 mph - N/A   Clear
3:15 PM 6.8 °F - -4.0 °F 61% 29.99 in 10.0 mi Calm Calm - N/A   Clear
3:35 PM 6.8 °F -3.5 °F -4.0 °F 61% 30.00 in 10.0 mi WSW 5.8 mph - N/A   Clear
3:55 PM 6.8 °F -2.0 °F -4.0 °F 61% 30.00 in 10.0 mi West 4.6 mph - N/A   Clear
4:15 PM 6.8 °F -0.1 °F -2.2 °F 67% 30.01 in 10.0 mi WSW 3.5 mph - N/A   Clear
4:35 PM 6.8 °F -2.0 °F -2.2 °F 67% 30.01 in 10.0 mi WSW 4.6 mph - N/A   Clear
4:55 PM 5.0 °F - -4.0 °F 66% 30.01 in 10.0 mi Calm Calm - N/A   Clear
5:15 PM 5.0 °F -2.1 °F -4.0 °F 66% 30.02 in 10.0 mi WSW 3.5 mph - N/A   Clear
5:35 PM 5.0 °F -2.1 °F -4.0 °F 66% 30.03 in 10.0 mi SW 3.5 mph - N/A   Clear
5:55 PM 5.0 °F - -2.2 °F 72% 30.03 in 10.0 mi Calm Calm - N/A   Clear
6:15 PM 1.4 °F - -4.0 °F 78% 30.04 in 10.0 mi Calm Calm - N/A   Clear
6:35 PM 3.2 °F - -4.0 °F 72% 30.04 in 10.0 mi Calm Calm - N/A   Clear
6:55 PM 1.4 °F - -5.8 °F 72% 30.04 in 10.0 mi Calm Calm - N/A   Clear
7:15 PM -0.4 °F - -7.6 °F 72% 30.05 in 10.0 mi Calm Calm - N/A   Clear
7:35 PM -2.2 °F - -7.6 °F 78% 30.05 in 10.0 mi Calm Calm - N/A   Clear
7:55 PM -2.2 °F -10.4 °F -7.6 °F 78% 30.05 in 10.0 mi East 3.5 mph - N/A   Clear
8:15 PM -2.2 °F -14.2 °F -9.4 °F 71% 30.05 in 10.0 mi East 5.8 mph - N/A   Clear
8:35 PM -2.2 °F -14.2 °F -9.4 °F 71% 30.05 in 10.0 mi East 5.8 mph - N/A   Clear
8:55 PM -4.0 °F -12.4 °F -11.2 °F 71% 30.06 in 10.0 mi East 3.5 mph - N/A   Clear
9:15 PM -4.0 °F -12.4 °F -9.4 °F 78% 30.06 in 10.0 mi East 3.5 mph - N/A   Clear
9:35 PM -4.0 °F -12.4 °F -9.4 °F 78% 30.06 in 10.0 mi East 3.5 mph - N/A   Clear
9:55 PM -4.0 °F -12.4 °F -9.4 °F 78% 30.06 in 10.0 mi East 3.5 mph - N/A   Clear
10:15 PM -4.0 °F -14.6 °F -9.4 °F 78% 30.05 in 10.0 mi East 4.6 mph - N/A   Clear
10:35 PM -5.8 °F -14.5 °F -11.2 °F 77% 30.05 in 10.0 mi ENE 3.5 mph - N/A   Clear
10:55 PM -7.6 °F -16.5 °F -11.2 °F 84% 30.05 in 10.0 mi ENE 3.5 mph - N/A   Clear
11:15 PM -7.6 °F - -11.2 °F 84% 30.06 in 10.0 mi Calm Calm - N/A   Clear
11:35 PM -7.6 °F - -11.2 °F 84% 30.06 in 10.0 mi Calm Calm - N/A   Clear
11:55 PM -9.4 °F -18.6 °F -14.8 °F 77% 30.07 in 10.0 mi North 3.5 mph - N/A   Clear